Station 44014 (LLNR 550) - VIRGINIA BEACH 64 NM East of Virginia Beach, VA Image indicating link to RSS feed of recent meteorological observations for station 44014


Conditions at 44014 as of
(2:10 am EDT)
0610 GMT on 05/21/2024:
     

Click on the graph icon in the table below to see a time series plot of the last five days of that observation.

5-day plot - Wind Direction Wind Direction (WDIR): N ( 360 deg true )
5-day plot - Wind Speed Wind Speed (WSPD): 9.7 kts
5-day plot - Wind Gust Wind Gust (GST): 13.6 kts
5-day plot - Atmospheric Pressure Atmospheric Pressure (PRES):29.99 in
5-day plot - Air Temperature Air Temperature (ATMP): 52.5 °F
5-day plot - Water Temperature Water Temperature (WTMP): 51.6 °F
5-day plot - Wind Chill Wind Chill (CHILL): 48.7 °F
5-day plot - Wind Speed at 10 Meters Wind Speed at 10 meters (WSPD10M): 11.7 kts
5-day plot - Wind Speed at 20 Meters Wind Speed at 20 meters (WSPD20M): 11.7 kts
5-day plot -  Wind Speed, Wind Gust and Atmospheric Pressure Combined plot of Wind Speed, Gust, and Air Pressure
Supplemental Measurements
Highest 1-minute Wind Speed
Time (EDT)5-day plot - 1-Minute Wind Speed WSPD 5-day plot - 1-Minute Wind Direction WDIR
2:05 am 11.7 kts-
Previous observations
TIME
(EDT)
5-day plot - Wind Direction
WDIR
 
5-day plot - Wind Speed
WSPD
kts
5-day plot - Wind Gust
GST
kts
5-day plot - Wave Height
WVHT
ft
5-day plot - Dominant Wave Period
DPD
sec
5-day plot - Average Wave Period
APD
sec
5-day plot - Mean Wave Direction
MWD
 
5-day plot - Atmospheric Pressure
PRES
in
5-day plot - Pressure Tendency
PTDY
in
5-day plot - Air Temperature
ATMP
°F
5-day plot - Water Temperature
WTMP
°F
5-day plot - Dew Point
DEWP
°F
5-day plot - Salinity
SAL
psu
5-day plot - Visibility
VIS
nmi
5-day plot - Tide (above MLLW)
TIDE
ft
2024-05-21 02:00 am N 9.7 11.7----29.99-0.03 52.3 51.6----
2024-05-21 01:50 am N 9.7 11.7 3.6 85.2ENE30.00- 52.2 51.4----
2024-05-21 01:40 am N 9.7 11.7----30.00- 52.0 51.4----
2024-05-21 01:30 am N 7.8 9.7----30.00- 52.0 51.4----
2024-05-21 01:20 am N 7.8 9.7 3.9 85.3ENE30.00- 52.0 51.4----
2024-05-21 01:10 am N 7.8 9.7----30.00- 52.0 51.4----
2024-05-21 01:00 am N 7.8 7.8 3.9-5.3ENE30.01-0.02 52.0-----
2024-05-21 12:50 am N 7.8 9.7 3.9 85.5ENE30.01- 52.0 51.4----
2024-05-21 12:40 am N 9.7 11.7 3.9-5.5ENE30.02- 52.0 51.6----
2024-05-21 12:30 am N 7.8 9.7----30.02- 52.2 51.4----
2024-05-21 12:20 am N 7.8 11.7 3.9 75.3ENE30.02- 52.2 51.4----
2024-05-21 12:10 am N 7.8 9.7 3.9-5.3ENE30.02- 52.2 51.4----
2024-05-21 12:00 am N 7.8 9.7----30.03+0.02 52.2 51.4----
2024-05-20 11:50 pm N 7.8 9.7 3.9 85.3ENE30.03- 52.2 51.4----
2024-05-20 11:40 pm N 9.7 11.7----30.03- 52.0 51.3----
2024-05-20 11:30 pm N 7.8 11.7----30.02- 52.0 51.3----
2024-05-20 11:20 pm N 7.8 7.8 4.3 85.4ENE30.02- 52.0 51.3----
2024-05-20 11:10 pm N 7.8 9.7 4.3-5.4ENE30.02- 52.0 51.3----
2024-05-20 11:00 pm N 7.8 11.7----30.03+0.02 51.8 51.3----
2024-05-20 10:50 pm N 9.7 11.7 3.9 75.2 NE30.03- 51.8 51.3----
2024-05-20 10:40 pm N 7.8 11.7 3.9-5.2 NE30.03- 51.8 51.3----
2024-05-20 10:30 pm N 7.8 9.7----30.03- 51.8 51.3----
2024-05-20 10:20 pm N 9.7 11.7 3.9 85.1ENE30.03- 51.8 51.3----
2024-05-20 10:10 pm N 9.7 11.7 3.9-5.1ENE30.03- 51.8 51.4----
2024-05-20 10:00 pm N 9.7 11.7----30.02+0.02 51.8 51.3----
2024-05-20 09:50 pm N 7.8 11.7----30.03- 51.6 51.1----
2024-05-20 09:40 pm N 7.8 9.7----30.03- 51.8 51.1----
2024-05-20 09:30 pm N 7.8 9.7----30.02- 51.6 51.1----
2024-05-20 09:20 pm- 7.8 9.7 3.9 74.9 NE30.01-- 51.1----
2024-05-20 09:10 pm N 7.8 9.7----30.01- 51.8 51.3----
2024-05-20 09:00 pm N 7.8 9.7----30.01+0.00 52.0 51.3----
2024-05-20 08:50 pm N 7.8 9.7 4.3 85.0 NE30.01- 52.0 51.4----
2024-05-20 08:40 pm N 9.7 11.7 4.3-5.0 NE30.00- 52.0 51.4----
2024-05-20 08:30 pm N 9.7 11.7----30.00- 52.0 51.4----
2024-05-20 08:20 pm N 9.7 11.7 3.9 64.7 NE30.01- 51.8 51.4----
2024-05-20 08:10 pm N 9.7 13.6----30.01- 51.8 51.4----
2024-05-20 08:00 pm N 11.7 13.6----30.00-0.02 51.8 51.4----
2024-05-20 07:50 pm N 13.6 15.5 4.3 74.9 NE30.01- 51.4 51.4----
2024-05-20 07:40 pm N 13.6 15.5----30.01- 51.4 51.4----
2024-05-20 07:30 pm N 13.6 17.5----30.01- 51.4 51.4----
2024-05-20 07:20 pm N 11.7 15.5 4.3 84.6 NE30.01- 51.4 51.3----
2024-05-20 07:10 pm N 11.7 15.5 4.3-4.6 NE30.01- 51.4 51.3----
2024-05-20 07:00 pm N 11.7 15.5----30.01+0.00 51.3 51.3----
2024-05-20 06:50 pm N 13.6 17.5 4.3 84.7ENE30.01- 51.3-----
2024-05-20 06:40 pm N 13.6 17.5----30.01- 51.3 51.3----
2024-05-20 06:30 pm N 13.6 17.5 4.3-4.7ENE30.01- 51.4 51.3----
2024-05-20 06:20 pm N 13.6 17.5 4.6 74.7 NE30.01- 51.4 51.4----
2024-05-20 06:10 pm N 13.6 17.5 4.6-4.7 NE30.01- 51.6 51.4----
2024-05-20 06:00 pm N 15.5 19.4----30.01+0.01 51.8 51.4----
2024-05-20 05:50 pm N 13.6 17.5 4.6 74.6 NE30.02- 51.8 51.4----
2024-05-20 05:40 pm N 15.5 19.4 4.6-4.6 NE30.01- 51.8 51.4----
2024-05-20 05:30 pm N 15.5 19.4----30.01- 52.0 51.3----
2024-05-20 05:20 pm N 15.5 19.4 4.9 74.5 NE30.01- 51.8 51.3----
2024-05-20 05:10 pm N 15.5 19.4 4.9-4.5 NE30.02- 51.8 51.3----
2024-05-20 05:00 pm N 15.5 17.5----30.02+0.01 51.6 51.4----
2024-05-20 04:50 pm N 15.5 19.4 4.9 64.6 NE30.02- 51.6 51.4----
2024-05-20 04:40 pm N 15.5 19.4 4.9-4.6 NE30.01- 51.4 51.4----
2024-05-20 04:30 pm N 15.5 21.4----30.01- 51.3 51.4----
2024-05-20 04:20 pm N 17.5 21.4 5.2 54.5 NE30.01- 51.3 51.4----
2024-05-20 04:10 pm N 15.5 21.4 5.2-4.5 NE30.01- 51.3 51.4----
2024-05-20 04:00 pm N 15.5 19.4----30.01-0.02 51.3 51.4----
2024-05-20 03:50 pm N 15.5 19.4 5.2 74.6 NE30.01- 51.1 51.4----
2024-05-20 03:40 pm N 15.5 19.4 5.2-4.6 NE30.01- 51.1 51.4----
2024-05-20 03:30 pm N 15.5 23.3----30.01- 51.1 51.4----
2024-05-20 03:20 pm- 17.5 21.4 4.9 74.6 NE30.01-- 51.4----
2024-05-20 03:10 pm N 17.5 21.4----30.00- 51.4 51.4----
2024-05-20 03:00 pm N 17.5 21.4----30.01-0.03 51.6 51.4----
2024-05-20 02:50 pm N 17.5 21.4 4.6 74.6 NE30.01- 51.8 51.4----
2024-05-20 02:40 pm N 15.5 21.4 4.6-4.6 NE30.01- 51.8 51.4----
2024-05-20 02:30 pm N 15.5 19.4----30.01- 51.8 51.4----
2024-05-20 02:20 pm N 15.5 21.4 5.2 64.7 NE30.01- 51.8 51.3----
2024-05-20 02:10 pm N 17.5 19.4 5.2-4.7 NE30.01- 51.8 51.3----
2024-05-20 02:00 pm N 17.5 23.3----30.01-0.03 51.8 51.3----
2024-05-20 01:50 pm N 15.5 19.4 4.9 54.7NNE30.01- 52.0-----
2024-05-20 01:40 pm N 15.5 19.4----30.01- 51.8 51.3----
2024-05-20 01:30 pm N 15.5 19.4----30.01- 51.8 51.3----
2024-05-20 01:20 pm--- 4.9 84.5ENE30.02-------
2024-05-20 01:10 pm N 15.5 21.4 4.9-4.5ENE30.02- 51.6 51.3----
2024-05-20 01:00 pm N 15.5 21.4----30.02+0.00 51.6 51.3----
2024-05-20 12:50 pm N 15.5 19.4 4.9 84.4 NE30.02- 51.8-----
2024-05-20 12:40 pm N 15.5 21.4 4.9-4.4 NE30.03- 51.6 51.3----
2024-05-20 12:30 pm N 15.5 21.4----30.03- 51.6 51.4----
2024-05-20 12:20 pm N 17.5 21.4 4.9 74.6 NE30.03- 51.4-----
2024-05-20 12:10 pm N 19.4 25.3----30.03- 51.4 51.6----
2024-05-20 12:00 pm N 17.5 23.3----30.03+0.03 51.4 51.6----
2024-05-20 11:50 am N 17.5 21.4 4.9 84.5 NE30.04- 51.3-----
2024-05-20 11:40 am N 17.5 21.4 4.9-4.5 NE30.04- 51.3 51.6----
2024-05-20 11:30 am N 17.5 21.4----30.03- 51.3 51.8----
2024-05-20 11:20 am N 17.5 23.3 4.9 44.4NNE30.03- 51.3-----
2024-05-20 11:10 am N 17.5 25.3----30.03- 51.1 51.8----
2024-05-20 11:00 am N 19.4 25.3 4.9-4.4NNE30.03+0.05 50.9 52.0----
2024-05-20 10:50 am- 19.4 23.3 4.9-4.4ENE30.03-------
2024-05-20 10:40 am N 19.4 25.3----30.03- 50.7 52.2----
2024-05-20 10:30 am N 19.4 25.3----30.03- 50.7 52.2----
2024-05-20 10:20 am N 19.4 25.3 4.6 84.5ENE30.03- 50.5-----
2024-05-20 10:10 am N 19.4 25.3 4.6-4.5ENE30.03- 50.5 52.2----
2024-05-20 10:00 am N 19.4 25.3----30.02+0.05 50.7 52.2----
2024-05-20 09:50 am N 19.4 23.3 4.3 54.3NNE30.03- 50.9 52.2----
2024-05-20 09:40 am N 17.5 23.3----30.02- 51.1 52.2----
2024-05-20 09:30 am N 17.5 23.3----30.01- 51.1 52.2----
2024-05-20 09:20 am N 19.4 25.3 4.9 74.5 NE30.01- 51.3 52.2----
2024-05-20 09:10 am N 19.4 23.3 4.9-4.5 NE30.01- 51.3 52.0----
2024-05-20 09:00 am N 17.5 23.3----30.01+0.04 51.4 52.0----
2024-05-20 08:50 am- 17.5 21.4 4.3-4.5ENE30.00-- 52.0----
2024-05-20 08:40 am N 15.5 19.4 4.3-4.5ENE30.00- 51.4 52.0----
2024-05-20 08:30 am N 17.5 19.4----30.00- 51.4 52.0----
2024-05-20 08:20 am N 15.5 19.4 4.6 84.7ENE30.00- 51.3 52.0----
2024-05-20 08:10 am N 15.5 21.4 4.6-4.7ENE29.99- 51.1 51.8----
2024-05-20 08:00 am N 17.5 21.4----29.99+0.04 50.9 51.8----
2024-05-20 07:50 am- 17.5 19.4 4.6-4.7ENE29.98-- 51.8----
2024-05-20 07:40 am N 17.5 21.4----29.99- 50.7 51.8----
2024-05-20 07:30 am N 15.5 21.4----29.99- 50.9 51.8----
2024-05-20 07:20 am- 17.5 19.4 4.6-4.7 NE29.98-------
2024-05-20 07:10 am N 15.5 19.4 4.6-4.7 NE29.98- 50.9 51.8----
2024-05-20 07:00 am N 15.5 19.4----29.98+0.02 50.9 51.8----
2024-05-20 06:50 am N 15.5 19.4 4.6 84.5ENE29.97- 51.1-----
2024-05-20 06:40 am N 15.5 19.4 4.6-4.5ENE29.97- 51.1 51.8----
2024-05-20 06:30 am N 15.5 19.4----29.97- 51.1 51.8----
2024-05-20 06:20 am N 15.5 19.4 4.6 74.6 NE29.98- 51.1-----
2024-05-20 06:10 am N 15.5 19.4 4.6-4.6 NE29.97- 51.1 51.8----
2024-05-20 06:00 am N 15.5 19.4----29.96+0.02 51.1 51.8----
2024-05-20 05:50 am N 15.5 19.4 4.3 84.6ENE29.96- 51.1 51.6----
2024-05-20 05:40 am N 15.5 19.4----29.96- 51.1 51.8----
2024-05-20 05:30 am N 15.5 19.4----29.96- 51.1-----
2024-05-20 05:20 am- 15.5 19.4 4.6-4.6ENE29.95-- 51.6----
2024-05-20 05:10 am N 15.5 19.4 4.6-4.6ENE29.95- 51.3 51.8----
2024-05-20 05:00 am N 15.5 17.5----29.95-0.01 51.4 51.8----
2024-05-20 04:50 am- 13.6 17.5 4.3-4.7 NE29.96-------
2024-05-20 04:40 am N 13.6 17.5 4.3-4.7 NE29.95- 51.6 51.8----
2024-05-20 04:30 am N 11.7 15.5----29.95- 51.6 51.8----
2024-05-20 04:20 am- 11.7 17.5 4.6-4.6ENE29.95-------
2024-05-20 04:10 am N 13.6 17.5 4.6-4.6ENE29.95- 51.4 51.8----
2024-05-20 04:00 am N 13.6 17.5----29.95-0.02 51.4 51.8----
2024-05-20 03:50 am N 15.5 19.4 4.6 74.7 NE29.95- 51.3-----
2024-05-20 03:40 am N 15.5 19.4 4.6-4.7 NE29.95- 51.3 52.0----
2024-05-20 03:30 am N 15.5 19.4----29.95- 51.4 52.0----
2024-05-20 03:20 am N 15.5 19.4 4.9 74.6 NE29.94- 51.4 52.3----
2024-05-20 03:10 am N 15.5 19.4 4.9-4.6 NE29.95- 51.4 52.3----
2024-05-20 03:00 am N 15.5 21.4----29.95-0.04 51.4 52.3----
2024-05-20 02:50 am N 15.5 19.4 4.9 64.6 NE29.95- 51.6 52.3----
2024-05-20 02:40 am N 15.5 19.4 4.9-4.6 NE29.95- 51.6 52.3----
2024-05-20 02:30 am N 17.5 21.4----29.95- 51.6 52.3----
2024-05-20 02:20 am N 17.5 21.4 4.9 74.7 NE29.95- 51.6 52.3----
2024-05-20 02:10 am N 15.5 19.4 4.9-4.7 NE29.96- 51.6 52.3----
2024-05-20 02:00 am N 17.5 21.4----29.96-0.02 51.6 52.3----
2024-05-20 01:50 am N 15.5 19.4 4.9 64.7 NE29.96- 51.8 52.3----

Detailed Wave Summary
for 44014 as of (1:40 am EDT)
0540 GMT on 05/21/2024:

These wave data are displayed in rounded times.

     

Click on the graph icon in the table below to see a time series plot of the last five days of that observation.

5-day plot - Significant Wave Height Significant Wave Height (WVHT): 3.6 ft
5-day plot - Swell Height Swell Height (SwH): 3.3 ft
5-day plot - Swell Period Swell Period (SwP): 8.3 sec
5-day plot - Swell Direction Swell Direction (SwD):ENE
5-day plot - Wind Wave Height Wind Wave Height (WWH): 1.6 ft
5-day plot - Wind Wave Period Wind Wave Period (WWP): 4.5 sec
5-day plot - Wind Wave Direction Wind Wave Direction (WWD): NE
5-day plot - Wave Steepness Wave Steepness (STEEPNESS): AVERAGE
5-day plot - Average Wave Period Average Wave Period (APD): 5.2 sec
Previous observations
TIME
(EDT)
5-day plot - Wave Height
WVHT
ft
5-day plot - Swell Height
SwH
ft
5-day plot - Swell Period
SwP
sec
5-day plot - Swell Direction
SwD
 
5-day plot - Wind Wave Height
WWH
ft
5-day plot - Wind Wave Period
WWP
sec
5-day plot - Wind Wave Direction
WWD
 
5-day plot - Wave Steepness
STEEPNESS
 
5-day plot - Average Wave Period
APD
sec
2024-05-21 01:10 am 3.9 3.6 8.3ENE 1.6 3.1 NNE AVERAGE 5.3
2024-05-21 12:40 am 3.9 3.6 8.3ENE 1.6 3.7 NE AVERAGE 5.5
2024-05-21 12:10 am 3.9 3.6 7.1ENE 1.3 3.7 NE AVERAGE 5.3
2024-05-20 11:40 pm 3.9 3.6 8.3ENE 1.6 3.4 NNE AVERAGE 5.3
2024-05-20 11:10 pm 4.3 3.9 8.3ENE 1.3 4.0 NNE AVERAGE 5.4
2024-05-20 10:40 pm 3.9 3.6 7.1 NE 1.6 4.0 NNE AVERAGE 5.2
2024-05-20 10:10 pm 3.9 3.6 7.7ENE 1.6 4.0 NNE AVERAGE 5.1
2024-05-20 09:10 pm 3.9 3.6 6.7 NE 1.6 3.1 N STEEP 4.9
2024-05-20 08:40 pm 4.3 3.9 7.7 NE 2.0 4.2 NNE AVERAGE 5.0
2024-05-20 08:10 pm 3.9 3.3 5.9 NE 2.6 5.0 NNE STEEP 4.7
2024-05-20 07:40 pm 4.3 3.0 7.1 NE 3.3 5.6 NE STEEP 4.9
2024-05-20 07:10 pm 4.3 3.0 7.7 NE 3.0 5.0 NE AVERAGE 4.6
2024-05-20 06:40 pm 4.3 2.3 7.7ENE 3.6 6.7 NE AVERAGE 4.7
2024-05-20 06:10 pm 4.6 2.6 7.1 NE 3.9 5.6 NE STEEP 4.7
2024-05-20 05:40 pm 4.6 2.6 7.1 NE 3.6 5.9 NE STEEP 4.6
2024-05-20 05:10 pm 4.9 2.6 7.1 NE 4.3 5.9 NE STEEP 4.5
2024-05-20 04:40 pm 4.9 2.6 7.7 NE 4.3 6.2 NE STEEP 4.6
2024-05-20 04:10 pm 5.2 2.3 8.3ENE 4.6 5.3 NEVERY_STEEP 4.5
2024-05-20 03:40 pm 5.2 2.0 10.0 E 4.6 7.1 NE STEEP 4.6
2024-05-20 03:10 pm 4.9 2.0 11.4ENE 4.6 7.1 NE STEEP 4.6
2024-05-20 02:40 pm 4.6 3.0 7.1 NE 3.6 5.3 NE STEEP 4.6
2024-05-20 02:10 pm 5.2 2.6 7.1 NE 4.3 5.9 NEVERY_STEEP 4.7
2024-05-20 01:40 pm 4.9 0.0-- 4.9 5.0 NNEVERY_STEEP 4.7
2024-05-20 01:10 pm 4.9 2.6 7.7ENE 4.3 6.7 NE AVERAGE 4.5
2024-05-20 12:40 pm 4.9 2.6 7.7 NE 3.9 4.8 NNE AVERAGE 4.4
2024-05-20 12:10 pm 4.9 3.3 7.1 NE 3.9 5.0 NE STEEP 4.6
2024-05-20 11:40 am 4.9 2.6 7.7 NE 3.9 3.8 N AVERAGE 4.5
2024-05-20 11:10 am 4.9 2.3 10.8ESE 4.3 4.3 NNEVERY_STEEP 4.4
2024-05-20 10:40 am 4.9 2.6 7.7ENE 4.3 4.2 NNE AVERAGE 4.4
2024-05-20 10:10 am 4.6 3.0 8.3ENE 3.6 5.9 NE AVERAGE 4.5
2024-05-20 09:40 am 4.3 2.3 8.3ENE 3.6 4.5 NNEVERY_STEEP 4.3
2024-05-20 09:10 am 4.9 3.0 7.1 NE 3.6 5.6 NE STEEP 4.5
2024-05-20 08:40 am 4.3 2.6 8.3ENE 3.6 5.3 NE AVERAGE 4.5
2024-05-20 08:10 am 4.6 3.0 8.3ENE 3.9 5.0 NE AVERAGE 4.7
2024-05-20 07:40 am 4.6 2.6 8.3ENE 3.9 5.6 NE AVERAGE 4.7
2024-05-20 07:10 am 4.6 3.0 7.7 NE 3.6 5.9 NE AVERAGE 4.7
2024-05-20 06:40 am 4.6 2.6 7.7ENE 3.6 5.9 NE AVERAGE 4.5
2024-05-20 06:10 am 4.6 2.6 6.7 NE 3.6 4.0 NNE STEEP 4.6
2024-05-20 05:40 am 4.3 2.6 8.3ENE 3.3 5.0 NE AVERAGE 4.6
2024-05-20 05:10 am 4.6 2.6 7.7ENE 3.6 5.6 NE AVERAGE 4.6
2024-05-20 04:40 am 4.3 2.6 7.7 NE 3.3 5.9 NE AVERAGE 4.7
2024-05-20 04:10 am 4.6 2.6 7.1ENE 3.6 5.6 NE STEEP 4.6
2024-05-20 03:40 am 4.6 3.0 6.7 NE 3.6 5.9 NE STEEP 4.7
2024-05-20 03:10 am 4.9 3.0 6.7 NE 3.9 5.6 NE STEEP 4.6
2024-05-20 02:40 am 4.9 2.3 8.3ENE 4.3 6.2 NE STEEP 4.6
2024-05-20 02:10 am 4.9 2.6 7.1 NE 4.3 6.2 NE STEEP 4.7

Plot of wave energy versus frequency (and period)